Wetbulb
69.96 72.72 75.97 76.31 76.67 76.77 76.27 75.91 75.42 75.58 75.31 74.43 73.91 73.15 72.31 71.89 71.31 70.35 70.15 69.97 70.33 70.79 72.14 72.25 71.50 71.09 70.29 70.21 69.61 69.03 68.68 68.87 68.67 68.77 68.98 68.94 68.92 68.68 69.19 68.98 69.90 66.40 69.28
71.20 72.39 75.62 76.09 76.35 76.34 76.29 75.81 75.53 75.02 74.44 73.60 72.86 72.13 71.20 70.86 70.44 69.79 70.86 70.69 70.24 70.92 71.73 71.88 71.52 70.09 69.78 69.30 68.69 67.98 67.97 67.69 67.43 68.02 68.77 68.53 69.10 68.86 68.71 68.00 69.19 66.64 68.29
71.18 73.18 74.22 75.78 76.02 76.14 76.13 75.55 74.93 74.29 73.83 72.82 72.15 71.28 70.17 69.70 69.59 70.12 71.80 71.56 70.55 71.68 71.97 71.87 70.46 69.47 69.13 68.61 68.30 67.70 67.14 66.77 66.54 67.48 68.53 63.78 65.13 68.23 67.63 67.93 67.73 68.47 68.04
71.94 71.95 72.62 75.86 76.10 76.06 75.60 75.00 74.46 73.62 72.86 72.23 71.49 70.32 69.01 68.82 69.38 71.48 72.31 72.32 72.02 72.01 71.39 69.89 68.90 68.82 68.64 68.54 68.48 68.05 66.86 65.88 66.68 67.85 66.64 67.99 67.79 70.55 70.25 69.09 67.59 68.10 68.64
71.48 71.85 74.02 75.73 76.03 75.80 75.25 74.82 74.20 73.22 72.38 71.31 70.36 69.18 68.30 68.75 69.33 71.51 71.64 71.48 70.96 70.77 70.29 69.29 68.69 68.66 68.59 68.76 68.63 68.17 66.96 66.36 67.61 67.32 65.48 65.79 65.52 69.88 71.06 71.09 69.39 68.68 68.78
71.01 72.27 73.91 75.37 75.69 75.21 74.83 74.42 74.01 73.33 72.26 70.90 69.59 68.56 68.31 68.69 69.50 70.66 70.12 69.99 69.87 70.07 69.54 69.00 68.54 68.69 68.93 68.92 68.58 67.95 67.06 67.22 67.89 65.32 66.25 67.39 66.29 70.21 70.57 70.51 70.47 70.31 70.08
70.74 71.49 72.24 75.13 75.31 75.01 74.68 74.23 73.92 73.57 71.82 70.99 69.26 68.55 68.65 68.76 69.28 69.59 69.13 68.87 68.74 68.70 68.59 68.42 68.46 68.80 69.02 68.42 67.92 67.16 66.52 67.14 64.44 63.81 63.84 63.90 65.23 69.18 68.95 69.42 69.13 68.94 68.72
69.88 70.45 70.57 73.21 74.34 74.48 74.62 74.40 73.96 73.49 72.29 71.29 69.76 68.81 68.64 68.57 68.63 69.02 68.71 68.42 68.29 68.35 68.49 68.86 68.87 68.84 68.47 67.74 66.89 66.24 66.25 66.38 64.71 62.78 62.98 62.71 68.68 68.93 68.07 67.39 66.78 66.77 66.74
70.19 69.46 68.72 71.36 72.34 72.60 73.05 73.08 73.48 73.25 72.18 71.68 70.53 70.06 69.73 68.99 68.35 68.58 68.41 68.20 68.26 68.64 69.27 69.39 68.90 67.93 66.73 66.10 65.87 64.85 65.34 65.19 61.66 61.44 64.13 64.51 69.40 68.64 67.45 66.51 65.81 65.31 65.42
68.41 69.11 67.96 69.50 70.33 69.55 69.77 71.39 71.64 72.26 71.44 71.19 70.27 69.30 68.25 67.89 68.16 68.65 68.59 68.91 69.11 69.70 69.41 69.10 67.56 66.18 65.37 65.57 65.24 64.35 64.34 64.15 59.23 60.27 64.50 66.91 68.73 67.97 66.74 65.62 64.73 64.12 64.05
68.22 68.59 68.55 69.06 68.80 68.66 68.48 69.01 69.98 70.63 70.69 70.41 68.98 67.35 66.37 64.81 65.42 65.97 66.43 67.78 68.88 69.81 70.08 68.76 66.31 65.26 65.72 65.20 64.67 64.46 63.43 59.09 56.82 59.83 65.25 68.42 67.98 67.07 65.69 64.57 63.72 63.15 62.88
66.21 67.12 68.39 67.69 67.54 66.60 68.02 66.99 66.14 68.13 68.30 68.86 68.13 66.74 65.65 64.66 64.42 65.02 65.44 67.02 68.32 68.99 69.54 68.51 66.07 64.77 64.10 59.31 58.22 61.05 56.69 57.10 55.99 61.83 64.17 67.68 66.88 66.00 64.85 63.96 63.19 62.63 61.81
66.16 67.23 67.48 66.89 66.84 66.17 65.96 66.29 64.67 65.51 66.44 67.96 67.68 67.64 66.27 65.63 64.16 64.37 63.97 64.53 64.67 65.49 65.73 66.16 62.96 59.42 56.58 56.84 56.34 55.24 56.43 55.23 54.87 61.04 65.29 67.04 66.30 65.49 64.05 63.11 62.17 61.33 60.87
65.92 66.71 67.78 67.49 66.62 66.24 66.34 65.98 65.83 66.18 66.46 67.77 68.50 67.50 66.66 64.22 64.70 64.46 64.56 63.53 62.56 63.78 63.94 65.01 62.46 60.09 58.48 57.02 55.49 55.82 54.91 54.03 54.36 61.57 63.66 65.33 65.89 64.50 63.43 61.98 61.21 60.61 60.06
66.01 66.79 67.31 67.63 66.99 66.95 66.37 65.80 65.42 65.32 65.89 65.42 67.64 67.94 67.26 63.89 63.41 64.19 64.24 64.23 63.74 63.61 63.53 64.55 62.69 60.57 57.27 56.00 54.94 54.18 53.22 53.44 54.42 60.68 60.06 62.75 64.31 63.72 62.15 61.42 60.71 60.26 59.52
65.57 66.82 67.58 67.59 67.54 67.35 66.88 66.72 67.33 66.21 66.14 66.16 65.18 64.58 64.61 63.67 63.43 63.75 63.59 65.10 63.61 63.31 62.63 62.40 61.45 58.21 56.05 54.52 52.73 53.02 52.72 52.68 54.09 58.45 59.29 59.83 62.64 62.92 61.66 60.86 60.24 60.02 59.10
65.24 66.98 67.78 67.96 68.02 67.92 67.22 67.65 67.54 67.97 68.75 66.31 66.45 65.80 64.89 63.91 63.37 63.20 63.30 63.84 63.67 63.94 63.50 61.84 60.57 58.16 55.33 53.65 51.71 51.73 52.34 52.20 53.27 54.56 58.43 57.01 58.61 60.77 61.67 60.04 59.54 59.61 58.87
58.59 60.79 67.75 69.36 68.58 67.92 67.96 68.64 68.38 67.81 67.52 67.65 67.31 66.98 65.88 65.01 64.07 62.90 62.76 63.70 64.14 63.78 63.49 61.38 59.58 56.75 54.26 51.83 50.50 50.43 51.21 51.90 52.63 53.11 55.00 56.64 55.13 54.84 58.38 60.31 59.10 58.73 58.21
56.40 56.63 57.41 59.23 65.79 68.08 68.24 68.23 67.61 68.20 68.36 67.79 67.86 68.29 67.13 66.41 65.17 63.84 62.59 63.03 64.73 63.90 63.86 61.97 59.37 55.79 52.78 51.20 50.91 49.99 50.03 50.44 51.27 53.21 52.62 53.23 54.14 52.69 51.57 58.31 58.30 58.35 56.98
54.35 55.25 55.90 57.42 58.08 58.55 63.13 67.59 67.55 66.51 67.52 67.88 68.03 68.00 67.25 66.47 65.42 64.37 63.35 62.82 63.01 63.29 62.06 61.38 58.96 56.07 53.61 52.13 52.68 50.66 48.44 49.13 50.19 50.21 50.54 52.11 51.12 50.99 50.29 49.62 48.90 48.62 55.07
52.16 52.85 53.60 54.24 55.17 55.23 55.73 57.83 63.54 65.99 65.81 66.29 67.01 68.23 68.19 68.53 66.80 65.14 64.00 63.15 62.40 61.92 62.55 61.18 59.42 56.02 53.41 52.62 48.96 46.32 46.51 46.87 47.07 49.13 49.76 48.85 49.50 49.69 48.46 47.62 46.16 45.06 47.15
49.12 50.42 51.57 52.53 53.74 54.90 54.97 55.10 57.61 64.52 66.75 66.77 65.76 66.85 67.43 66.13 67.16 66.66 64.86 63.08 63.23 62.12 60.94 61.62 60.34 56.54 53.27 51.95 46.69 45.34 42.54 44.20 44.88 45.91 48.10 48.90 47.32 48.04 47.64 47.57 46.62 44.70 44.16
50.30 51.24 51.92 51.37 50.91 51.67 52.89 54.23 54.18 55.00 62.36 63.72 63.66 64.71 65.80 66.86 66.15 66.93 66.50 65.49 62.67 62.03 61.50 61.15 60.68 57.86 54.15 50.68 49.83 47.75 44.85 43.33 41.27 44.15 44.78 47.10 46.47 45.97 46.17 46.14 45.94 45.02 43.43
50.88 52.58 53.26 53.43 52.81 51.92 51.23 51.15 51.03 51.18 52.31 58.85 63.73 65.43 65.25 65.45 65.29 65.98 65.61 64.71 65.05 64.42 62.92 61.24 60.89 58.76 54.94 50.87 49.04 51.31 48.94 46.06 42.31 38.74 43.19 44.74 46.14 45.44 45.30 44.50 45.07 44.44 43.61
51.75 51.57 52.59 52.77 52.56 52.69 51.63 50.16 49.47 49.98 51.45 53.20 56.36 60.22 61.79 63.89 64.80 64.26 63.99 64.07 64.28 64.35 64.12 62.22 61.15 60.05 57.55 53.82 51.15 48.68 47.87 44.36 42.77 41.92 37.76 41.15 43.66 44.30 44.63 44.89 44.23 42.92 41.79
51.59 51.41 51.33 51.04 51.42 51.88 51.89 51.87 50.52 49.42 49.52 49.79 51.74 55.70 58.45 59.58 61.01 63.60 63.29 63.88 63.73 63.32 63.26 63.05 62.03 60.95 59.15 55.46 51.23 50.69 49.55 48.68 44.16 42.13 43.60 41.30 41.95 42.57 44.00 44.51 43.46 42.30 40.83
MSLP
1012.23 1012.55 1012.92 1013.25 1013.74 1014.24 1014.64 1014.97 1015.29 1015.57 1015.76 1015.99 1016.26 1016.59 1016.87 1017.05 1017.17 1017.29 1017.38 1017.46 1017.48 1017.46 1017.59 1017.77 1017.97 1018.25 1018.44 1018.59 1018.80 1018.93 1019.03 1019.10 1019.18 1019.25 1019.29 1019.30 1019.30 1019.34 1019.34 1019.26 1019.27 1019.45 1019.43
1011.94 1012.68 1013.05 1013.41 1013.87 1014.36 1014.71 1015.12 1015.49 1015.80 1015.92 1016.13 1016.45 1016.75 1017.14 1017.26 1017.39 1017.51 1017.52 1017.54 1017.67 1017.64 1017.81 1017.99 1018.34 1018.62 1018.79 1018.98 1019.13 1019.25 1019.37 1019.39 1019.45 1019.55 1019.48 1019.51 1019.64 1019.60 1019.63 1019.59 1019.57 1019.65 1019.67
1011.96 1012.80 1013.24 1013.61 1014.07 1014.50 1014.86 1015.27 1015.62 1015.95 1016.14 1016.45 1016.73 1017.02 1017.38 1017.46 1017.56 1017.62 1017.62 1017.70 1017.81 1018.00 1018.16 1018.37 1018.72 1018.95 1019.17 1019.32 1019.43 1019.54 1019.59 1019.57 1019.72 1019.79 1019.78 1019.76 1019.82 1019.77 1019.77 1019.76 1019.75 1019.78 1019.80
1011.85 1012.84 1013.38 1013.82 1014.22 1014.65 1015.06 1015.49 1015.89 1016.18 1016.46 1016.74 1017.02 1017.29 1017.53 1017.63 1017.73 1017.81 1017.82 1017.89 1018.09 1018.38 1018.56 1018.85 1019.09 1019.29 1019.48 1019.64 1019.74 1019.78 1019.77 1019.63 1019.56 1019.66 1019.79 1019.76 1019.77 1019.90 1019.90 1019.88 1019.94 1019.98 1019.91
1011.93 1012.52 1013.45 1013.96 1014.33 1014.82 1015.26 1015.67 1016.08 1016.38 1016.69 1017.00 1017.28 1017.53 1017.71 1017.82 1017.92 1018.10 1018.26 1018.42 1018.58 1018.75 1018.93 1019.19 1019.38 1019.56 1019.71 1019.87 1019.95 1019.99 1019.88 1019.80 1019.74 1019.65 1019.65 1019.85 1020.05 1020.21 1020.10 1019.96 1020.07 1020.18 1020.26
1011.77 1012.72 1013.62 1014.10 1014.49 1014.99 1015.41 1015.81 1016.15 1016.44 1016.81 1017.21 1017.49 1017.72 1017.91 1018.04 1018.16 1018.44 1018.71 1018.89 1019.07 1019.16 1019.27 1019.48 1019.66 1019.82 1019.95 1020.03 1020.12 1020.19 1020.09 1019.97 1019.78 1019.57 1019.91 1020.23 1020.41 1020.43 1020.45 1020.49 1020.44 1020.48 1020.55
1012.20 1012.96 1013.67 1014.21 1014.71 1015.16 1015.56 1015.87 1016.10 1016.45 1016.92 1017.36 1017.69 1017.90 1018.12 1018.26 1018.48 1018.74 1018.96 1019.13 1019.28 1019.43 1019.57 1019.72 1019.86 1020.03 1020.12 1020.17 1020.24 1020.29 1020.19 1020.09 1020.02 1019.78 1020.29 1020.51 1020.55 1020.63 1020.74 1020.78 1020.80 1020.83 1020.94
1012.27 1012.99 1013.83 1014.30 1014.78 1015.15 1015.62 1015.98 1016.19 1016.62 1016.97 1017.38 1017.80 1018.04 1018.23 1018.52 1018.76 1019.02 1019.19 1019.30 1019.39 1019.55 1019.70 1019.86 1020.04 1020.17 1020.25 1020.28 1020.38 1020.42 1020.29 1020.22 1020.20 1019.95 1020.34 1020.59 1020.70 1020.87 1021.01 1021.11 1021.12 1021.24 1021.35
1012.03 1013.01 1013.90 1014.44 1014.83 1015.21 1015.67 1016.05 1016.35 1016.59 1017.02 1017.29 1017.79 1018.12 1018.39 1018.64 1018.90 1019.11 1019.29 1019.46 1019.58 1019.71 1019.75 1019.92 1020.14 1020.26 1020.42 1020.52 1020.58 1020.60 1020.51 1020.40 1020.51 1020.26 1020.51 1020.81 1020.93 1021.11 1021.34 1021.42 1021.49 1021.75 1021.83
1012.31 1013.07 1013.92 1014.50 1014.92 1015.32 1015.81 1016.20 1016.55 1016.85 1017.05 1017.35 1017.82 1018.06 1018.40 1018.78 1019.04 1019.15 1019.33 1019.48 1019.59 1019.75 1019.94 1020.04 1020.20 1020.38 1020.59 1020.71 1020.74 1020.74 1020.57 1020.45 1020.45 1020.50 1020.88 1020.99 1021.16 1021.37 1021.66 1021.70 1021.77 1022.06 1022.27
1012.61 1013.13 1013.60 1014.15 1014.61 1015.02 1015.61 1016.20 1016.59 1016.94 1017.24 1017.47 1017.87 1018.11 1018.29 1018.66 1018.95 1019.18 1019.27 1019.42 1019.58 1019.70 1019.87 1020.06 1020.26 1020.43 1020.61 1020.80 1020.87 1020.88 1020.76 1020.71 1020.49 1020.79 1021.07 1021.17 1021.43 1021.69 1021.92 1022.02 1022.12 1022.29 1022.56
1012.92 1012.98 1013.36 1013.64 1014.07 1014.64 1015.02 1015.98 1016.47 1016.80 1017.14 1017.44 1017.69 1018.07 1018.06 1018.20 1018.40 1018.70 1018.99 1019.34 1019.64 1019.74 1019.91 1020.09 1020.27 1020.42 1020.57 1020.71 1020.86 1020.86 1020.92 1020.69 1020.62 1020.96 1021.20 1021.32 1021.60 1021.91 1022.13 1022.38 1022.46 1022.61 1022.88
1013.25 1013.23 1013.06 1013.41 1013.71 1014.28 1014.81 1015.57 1015.98 1016.32 1016.65 1016.97 1017.30 1017.44 1017.56 1017.53 1018.02 1018.48 1019.00 1019.28 1019.58 1019.79 1019.94 1020.19 1020.39 1020.48 1020.46 1020.53 1020.48 1020.66 1020.75 1020.54 1020.65 1020.90 1021.20 1021.39 1021.73 1022.10 1022.40 1022.59 1022.74 1022.86 1022.99
1013.49 1013.40 1013.31 1013.31 1013.78 1014.07 1014.49 1015.07 1015.27 1015.64 1015.97 1016.37 1016.67 1016.83 1017.01 1017.21 1017.62 1018.00 1018.54 1018.83 1019.16 1019.34 1019.63 1019.89 1020.12 1020.20 1020.24 1020.09 1020.12 1020.28 1020.39 1020.62 1020.66 1020.96 1021.16 1021.38 1021.71 1022.11 1022.46 1022.63 1022.84 1023.02 1023.20
1013.11 1013.52 1013.58 1013.59 1013.74 1013.90 1014.27 1014.66 1014.84 1015.10 1015.47 1015.62 1016.08 1016.35 1016.47 1016.64 1017.04 1017.31 1017.73 1018.12 1018.38 1018.60 1018.81 1019.18 1019.47 1019.59 1019.85 1020.21 1020.27 1020.17 1020.27 1020.36 1020.40 1020.83 1021.29 1021.41 1021.70 1021.99 1022.38 1022.58 1022.84 1023.01 1023.29
1012.62 1013.06 1013.44 1013.77 1013.93 1013.87 1014.34 1014.41 1014.61 1014.64 1014.92 1015.24 1015.52 1015.75 1015.93 1016.25 1016.65 1016.89 1017.14 1017.46 1017.84 1018.02 1018.17 1018.36 1018.64 1019.12 1019.54 1019.94 1020.22 1020.12 1020.23 1020.32 1020.38 1020.77 1021.07 1021.38 1021.65 1022.03 1022.29 1022.56 1022.71 1022.94 1023.23
1011.94 1012.19 1012.72 1013.28 1013.73 1014.26 1014.60 1014.53 1014.45 1014.54 1014.54 1015.02 1015.28 1015.51 1015.79 1016.03 1016.49 1016.77 1017.00 1017.47 1017.50 1017.48 1017.80 1017.85 1018.13 1018.52 1019.09 1019.38 1019.93 1019.95 1020.10 1020.07 1020.22 1020.56 1020.95 1021.23 1021.53 1021.90 1022.17 1022.36 1022.58 1022.79 1023.04
1011.49 1011.76 1011.91 1012.40 1013.06 1013.75 1014.23 1014.31 1014.49 1014.67 1014.78 1014.81 1014.85 1015.08 1015.33 1015.66 1015.98 1016.31 1016.73 1017.20 1017.28 1017.37 1017.63 1017.75 1018.10 1018.46 1018.89 1019.28 1019.59 1019.83 1019.94 1019.97 1020.02 1020.23 1020.71 1021.05 1021.43 1021.78 1022.05 1022.15 1022.41 1022.70 1022.95
1011.45 1011.64 1011.81 1012.05 1012.64 1012.93 1013.29 1013.52 1013.99 1014.50 1014.85 1014.84 1014.81 1014.52 1014.72 1015.12 1015.50 1016.00 1016.23 1016.40 1016.72 1017.03 1017.26 1017.62 1018.02 1018.40 1018.83 1019.14 1019.42 1019.73 1019.90 1020.09 1019.99 1019.97 1020.29 1020.72 1021.12 1021.43 1021.82 1022.05 1022.30 1022.66 1022.91
1011.25 1011.52 1011.80 1011.99 1012.15 1012.34 1012.69 1012.92 1013.52 1014.01 1014.25 1014.40 1014.63 1014.67 1014.45 1014.58 1014.96 1015.36 1015.76 1015.95 1016.10 1016.71 1016.92 1017.11 1017.50 1018.03 1018.56 1019.07 1019.30 1019.54 1019.76 1020.00 1019.95 1020.09 1020.19 1020.25 1020.72 1021.15 1021.44 1021.83 1022.21 1022.60 1022.87
1011.80 1011.97 1011.95 1012.10 1012.13 1012.35 1012.53 1012.86 1013.14 1013.62 1013.96 1014.21 1014.02 1014.25 1014.32 1014.11 1014.29 1014.70 1015.12 1015.40 1015.57 1015.90 1016.12 1016.56 1017.18 1017.75 1018.27 1018.61 1019.62 1020.00 1020.01 1019.86 1019.99 1020.04 1019.91 1020.17 1020.39 1020.68 1021.27 1021.73 1022.10 1022.50 1022.78
1012.40 1012.46 1012.47 1012.50 1012.46 1012.44 1012.51 1012.56 1012.69 1012.93 1013.21 1013.45 1013.55 1013.62 1013.99 1014.19 1014.07 1013.98 1014.41 1014.75 1015.10 1015.33 1015.66 1016.02 1016.40 1017.21 1017.77 1018.06 1019.06 1020.01 1020.43 1020.44 1020.00 1019.72 1019.81 1019.88 1020.15 1020.37 1020.79 1021.33 1021.64 1022.09 1022.57
1013.21 1013.17 1013.18 1013.08 1012.94 1012.83 1012.82 1012.80 1012.69 1012.64 1012.86 1013.15 1013.40 1013.49 1013.45 1013.65 1013.94 1014.02 1013.77 1014.10 1014.63 1015.01 1015.12 1015.45 1015.78 1016.44 1017.11 1017.70 1017.69 1018.53 1019.53 1019.55 1019.76 1019.50 1019.51 1019.63 1019.86 1020.15 1020.39 1020.69 1021.15 1021.41 1022.10
1013.69 1013.80 1013.69 1013.45 1013.29 1013.13 1013.05 1013.14 1013.33 1013.32 1013.41 1013.01 1012.78 1012.86 1012.99 1013.01 1013.02 1013.24 1013.46 1013.66 1014.02 1014.29 1014.54 1014.90 1015.07 1015.64 1016.43 1017.04 1017.63 1017.23 1017.56 1017.98 1018.79 1019.61 1019.38 1019.34 1019.44 1019.62 1019.93 1020.35 1020.71 1021.02 1021.21
1013.86 1013.98 1013.85 1013.62 1013.42 1013.18 1013.17 1013.18 1013.43 1013.36 1013.24 1012.94 1012.65 1012.43 1012.34 1012.41 1012.51 1012.80 1013.05 1013.31 1013.59 1013.84 1014.12 1014.20 1014.70 1014.88 1015.32 1016.01 1016.36 1016.82 1017.26 1017.54 1017.82 1018.35 1019.15 1019.21 1019.21 1018.96 1019.20 1019.52 1020.01 1020.75 1020.66
1013.84 1014.02 1014.01 1013.84 1013.68 1013.40 1013.20 1013.13 1013.25 1013.37 1013.30 1013.19 1013.06 1012.79 1012.41 1012.06 1011.99 1012.10 1012.34 1012.72 1012.96 1013.29 1013.55 1013.82 1014.04 1014.22 1014.66 1015.29 1015.75 1015.85 1016.00 1016.62 1017.17 1017.49 1018.11 1018.84 1018.85 1019.03 1019.11 1019.40 1019.62 1020.09 1020.29
Wind_Speed
10 10 14 14 17 16 15 14 13 11 13 15 15 13 10 9 9 9 8 7 6 7 12 15 14 14 13 13 13 13 12 12 11 11 12 12 12 12 12 14 11 9 11
16 12 14 15 18 15 14 13 13 12 14 15 13 14 8 8 8 8 7 7 8 8 9 14 14 13 13 13 12 12 11 9 9 9 10 12 9 11 12 12 12 9 11
16 13 13 15 15 14 14 14 14 11 15 15 13 12 7 7 8 7 7 8 10 10 13 15 14 13 13 12 12 11 8 5 4 3 4 3 6 10 9 9 8 9 9
16 13 12 15 15 15 16 16 14 13 14 13 12 11 8 8 9 10 14 15 13 15 15 14 13 12 12 11 11 9 6 2 4 5 0 6 10 11 8 5 7 8 8
15 12 13 15 15 16 16 15 14 13 14 13 12 10 9 9 10 12 14 15 15 14 14 13 12 12 11 11 10 8 4 3 7 6 8 7 6 11 16 16 7 10 11
12 16 15 14 14 16 15 14 13 13 15 13 12 11 10 10 11 12 13 13 12 12 13 12 11 10 10 9 9 6 3 5 8 1 8 8 7 11 15 17 18 19 15
16 14 12 16 15 15 14 13 12 12 15 14 11 11 10 10 11 12 11 11 11 11 11 11 10 9 9 8 7 4 3 4 5 5 6 7 6 10 12 14 16 16 16
16 13 10 13 14 15 12 10 11 14 14 14 11 11 11 10 10 10 10 10 10 10 10 10 10 8 7 6 5 4 5 6 7 7 7 6 7 12 12 12 13 13 12
14 14 9 8 10 12 13 9 8 13 14 16 12 10 10 10 10 10 9 9 9 9 10 10 9 7 6 5 4 3 4 6 6 4 7 4 10 13 12 12 13 11 12
8 13 8 8 8 7 6 10 8 8 10 13 12 13 11 9 8 8 7 7 8 9 8 9 8 7 6 5 4 0 4 7 2 2 4 5 11 13 10 11 11 9 10
4 11 10 11 10 9 9 7 8 9 8 10 10 10 10 5 6 8 7 9 4 7 10 9 8 7 7 5 3 3 5 3 2 5 4 12 10 10 9 10 10 9 10
4 6 10 8 8 8 8 9 7 7 5 5 7 8 5 6 7 9 9 10 5 6 9 9 8 7 7 4 3 4 3 4 1 5 3 10 10 9 9 9 10 10 9
6 4 6 6 8 8 6 6 4 5 5 6 9 9 7 6 5 6 4 3 4 4 3 5 4 3 6 5 5 4 3 2 1 4 6 11 10 9 8 9 9 9 9
7 5 4 5 6 7 5 5 6 6 6 7 9 11 7 4 7 6 6 6 5 4 5 6 4 6 6 3 4 4 5 2 1 3 5 11 11 9 9 9 9 8 8
9 7 4 5 3 5 6 5 4 5 5 5 9 12 9 5 5 5 6 6 7 7 6 6 5 5 5 4 4 3 5 5 4 5 3 11 10 10 9 9 9 9 8
7 9 10 7 5 2 3 4 5 4 5 5 4 4 5 4 5 5 5 8 5 5 6 5 5 5 5 5 4 4 5 4 4 8 5 5 11 10 11 10 9 9 8
8 11 11 12 8 6 6 6 3 3 2 5 5 7 6 5 5 5 4 4 5 5 5 5 5 5 5 5 6 5 3 4 4 6 6 5 6 10 10 11 10 10 9
4 2 11 12 14 13 10 8 3 3 3 3 4 5 8 7 7 6 4 4 5 4 4 4 4 4 4 5 4 4 4 3 5 5 6 6 5 5 6 10 11 11 10
5 4 5 2 8 13 12 9 9 9 5 5 4 4 7 10 8 6 5 5 8 6 6 4 3 4 3 3 5 4 4 4 4 3 6 7 7 6 5 8 9 8 10
3 6 8 6 7 6 4 7 7 5 7 7 8 7 6 5 8 6 6 6 6 7 5 4 5 4 4 4 4 4 4 3 3 4 5 4 6 7 6 7 6 5 8
7 6 5 5 5 2 3 3 4 7 7 5 6 10 9 9 9 8 7 6 6 6 8 7 5 7 5 5 4 0 1 4 4 4 4 4 6 6 7 6 5 4 4
6 6 6 5 5 4 2 3 2 3 6 8 5 8 10 6 6 9 8 7 9 6 6 9 9 5 4 6 5 4 2 4 4 5 4 5 7 5 6 8 7 7 6
8 8 7 8 7 6 6 4 4 3 1 2 4 5 9 12 10 10 8 9 7 5 7 8 9 11 8 4 9 6 4 6 3 3 7 5 6 5 5 6 7 7 7
4 5 5 4 4 5 6 4 4 3 3 4 5 7 7 10 11 13 12 7 8 8 8 8 6 7 6 10 1 8 2 4 5 2 2 4 5 7 8 5 6 6 7
3 2 3 6 6 2 2 3 3 5 4 4 4 5 6 8 11 11 11 10 6 7 9 7 6 8 10 8 10 3 3 3 3 4 4 4 3 4 6 7 6 5 7
4 3 4 5 5 6 3 4 4 6 6 5 5 5 4 4 5 9 9 9 10 4 6 8 7 9 10 9 8 6 7 9 6 4 3 2 4 3 2 4 7 6 6
Wind_Direction
121 134 128 128 128 134 134 130 127 123 121 118 114 102 94 90 83 76 79 87 88 94 100 103 93 89 89 87 87 85 83 84 90 94 88 75 71 68 58 38 89 72 64
125 139 133 132 131 134 133 132 123 119 116 106 101 98 97 93 83 75 77 99 103 99 103 103 91 89 87 85 84 87 89 99 108 111 117 94 67 60 54 61 70 68 62
131 131 138 132 129 131 127 122 118 121 111 110 104 103 100 96 92 87 50 114 112 89 105 97 91 87 86 86 85 86 85 78 89 146 204 98 84 59 60 62 66 62 59
127 147 139 135 132 127 124 122 124 123 114 109 105 106 108 108 106 89 80 95 99 103 99 94 94 94 93 90 87 84 84 42 349 333 210 82 67 57 56 66 69 60 51
132 148 129 134 133 130 129 128 129 127 121 114 111 112 115 117 115 93 87 89 97 101 97 96 99 99 98 92 88 83 72 2 333 350 69 55 71 61 63 61 68 71 61
142 118 133 126 131 134 132 134 138 145 129 119 119 121 121 122 118 99 97 97 96 98 98 100 105 103 99 91 82 69 22 346 323 73 98 86 76 72 72 68 70 69 69
109 119 128 131 131 133 138 147 157 137 130 125 128 127 126 126 122 112 111 110 109 106 107 109 111 108 99 92 86 62 341 309 302 87 90 81 79 84 73 71 71 61 57
122 131 129 136 146 143 143 160 157 137 141 137 136 133 129 126 125 125 120 119 118 118 119 116 114 109 104 98 87 45 343 340 348 84 107 87 86 97 86 76 65 63 63
123 123 133 131 134 135 133 122 145 149 154 139 141 135 127 125 133 136 131 129 128 130 127 123 119 114 107 100 90 38 335 328 333 49 90 85 103 99 88 81 75 70 69
122 127 141 139 147 140 133 136 137 139 144 144 150 139 131 133 138 134 136 143 151 137 135 131 124 117 109 106 110 201 299 319 7 87 87 91 111 102 94 89 84 77 71
151 138 156 164 170 167 149 154 155 157 161 160 158 149 142 159 170 156 188 155 177 168 154 142 137 131 124 123 140 237 280 286 164 88 102 107 109 103 99 98 94 93 85
184 173 161 169 156 157 163 145 164 171 173 177 166 167 169 194 176 180 150 159 168 145 144 153 156 162 172 167 176 233 245 257 30 110 115 120 122 113 107 101 104 103 98
261 304 169 157 151 154 133 156 169 164 182 178 175 181 209 209 154 137 140 155 165 182 166 155 169 208 218 208 177 203 217 46 230 117 131 128 133 127 121 119 117 114 109
207 263 310 148 149 160 157 162 178 174 192 174 185 189 201 202 167 164 163 170 183 171 192 187 181 208 235 211 186 210 145 219 252 127 140 139 145 141 141 138 133 127 121
167 186 251 294 187 178 171 174 205 182 175 199 185 194 202 177 177 169 169 178 186 174 189 194 191 190 171 210 237 202 170 198 215 135 135 140 141 152 155 153 152 143 135
173 177 177 204 250 193 285 216 195 191 177 184 196 199 208 174 183 196 192 186 196 175 200 186 178 165 177 186 210 220 203 202 197 130 140 144 150 158 165 166 164 157 151
192 184 175 179 191 193 227 265 277 291 235 179 194 183 203 204 195 199 213 162 191 200 220 186 185 172 174 183 192 205 211 204 185 148 155 150 148 165 171 178 177 171 166
262 225 185 183 179 186 202 211 243 275 299 294 188 186 190 202 198 204 196 178 185 202 225 192 178 173 176 177 182 205 193 206 192 189 145 157 156 156 177 184 184 184 173
218 277 297 239 187 191 201 183 175 187 230 272 290 242 196 194 198 204 201 200 186 196 215 189 183 155 174 182 190 204 193 201 208 190 180 156 173 164 168 178 171 182 181
242 221 229 225 224 249 223 183 177 193 195 197 229 269 237 199 196 192 200 207 195 193 202 183 167 175 165 185 189 180 189 206 205 210 191 171 168 160 163 154 145 154 178
343 331 323 321 286 248 242 246 182 181 198 213 190 226 258 219 203 204 200 200 208 205 203 183 171 177 198 162 109 16 275 220 234 224 196 186 177 178 149 155 159 160 177
315 331 335 308 304 289 251 257 257 184 195 200 203 214 249 273 262 210 211 222 218 212 209 194 189 183 179 172 153 110 223 313 262 225 211 194 189 172 174 168 175 168 175
35 15 356 344 338 330 331 332 327 329 22 153 201 216 225 236 258 275 247 214 221 222 212 211 199 195 197 206 179 152 172 216 156 213 219 204 184 177 179 179 183 172 166
54 12 342 316 297 291 305 308 291 266 276 240 199 208 211 212 212 229 247 247 219 216 225 224 209 206 177 196 241 227 216 147 178 193 259 211 197 188 186 189 183 181 154
98 307 326 324 318 309 318 302 295 280 271 281 297 270 214 202 208 216 224 243 239 226 236 204 215 202 209 195 205 178 205 208 227 139 184 224 223 199 181 183 171 181 155
60 17 340 330 334 346 347 306 267 263 276 292 300 296 263 240 214 202 204 219 234 238 238 235 218 213 205 221 210 208 204 202 208 191 170 195 214 240 150 170 172 170 165